Regional Weather Roundup
Issued by NWS Boston, MA

Home | Current Version | Previous Version | Text Only | Print | Product List | Glossary On
Versions: 1 2 3 4 5 6 7 8 9 10 11 12 13 14 15 16 17 18 19 20 21 22 23 24 25 26 27 28 29 30 31 32 33 34 35 36 37 38 39 40 41 42 43 44 45 46 47 48
000
ASUS41 KBOX 141610
RWRBOX

REGIONAL WEATHER ROUNDUP
NATIONAL WEATHER SERVICE TAUNTON MA
1200 PM EDT MON JUL 14 2014

NOTE:  "FAIR" INDICATES FEW OR NO CLOUDS BELOW 12,000 FEET WITH NO
SIGNIFICANT WEATHER AND/OR OBSTRUCTIONS TO VISIBILITY.  THE FOLLOWING
OBSERVATION LOCATIONS DO NOT REPORT PRESENT WEATHER...PROVINCETOWN...
SMITHFIELD...BLOCK ISLAND...KEENE...AND OXFORD.

MAZALL-141700-
EASTERN MASSACHUSETTS

CITY           SKY/WX    TMP DP  RH WIND       PRES   REMARKS
BOSTON         PTSUNNY   82  70  66 S8        29.90S
BEVERLY        MOSUNNY   83  69  62 SW7       29.89S
LAWRENCE       MOSUNNY   84  68  58 SW7       29.91S
BEDFORD        PTSUNNY   82  69  64 SW7       29.89S
BLUE HILL        N/A     82  70  66 SW8       29.92S
NORWOOD        MOSUNNY   84  70  62 SW7       29.89F
MARSHFIELD     PTSUNNY   84  72  65 SW7       29.92S
PLYMOUTH       MOSUNNY   83  69  62 SW15      29.91F
TAUNTON        PTSUNNY   84  71  65 VRB7      29.91S
NEW BEDFORD    MOSUNNY   83  71  67 S13       29.92R
$$

MAZALL-141700-
CAPE COD AND THE ISLANDS

CITY           SKY/WX    TMP DP  RH WIND       PRES   REMARKS
FALMOUTH       PTSUNNY   79  72  78 S15       29.94S
HYANNIS        CLOUDY    76  71  85 SW16      29.93S
CHATHAM        CLOUDY    74  70  87 SW13G21   29.95S
PROVINCETOWN   MOSUNNY   79  72  78 SW13G18   29.92F
NANTUCKET      PTSUNNY   72  67  84 S15       29.96F
MARTHAS VNYRD  CLOUDY    76  71  85 SW14G25   29.95S
$$

MAZALL-141700-
CENTRAL AND WESTERN MASSACHUSETTS

CITY           SKY/WX    TMP DP  RH WIND       PRES   REMARKS
WORCESTER      PTSUNNY   78  68  71 SW8       29.94F
FITCHBURG      PTSUNNY   83  66  56 VRB5      29.91S
ORANGE           N/A    N/A N/A N/A MISG      29.91F
SPRINGFIELD    PTSUNNY   82  70  68 S6        29.91S
WESTFIELD      CLOUDY    80  70  71 SE5       29.91S
NORTH ADAMS    SUNNY     82  63  52 SW5       29.91S
PITTSFIELD     CLOUDY    79  66  64 W6        29.93F
$$

RIZALL-141700-
RHODE ISLAND

CITY           SKY/WX    TMP DP  RH WIND       PRES   REMARKS
PROVIDENCE     PTSUNNY   80  70  71 SE14      29.92S
NEWPORT        CLOUDY    76  70  82 S10       29.94R
BLOCK ISLAND   PTSUNNY   75  70  83 SW15      29.95F
SMITHFIELD     CLOUDY    79  70  73 CALM      29.95S
WESTERLY       PTSUNNY   76  69  79 SW6       29.95R
$$

CTZALL-141700-
CONNECTICUT

CITY           SKY/WX    TMP DP  RH WIND       PRES   REMARKS
BRADLEY INTL   PTSUNNY   81  70  69 S9        29.90F
HARTFORD       CLOUDY    78  70  76 S8        29.91S
BRIDGEPORT     PTSUNNY   78  70  76 SW8       29.93R
DANBURY        CLOUDY    76  68  76 S5        29.94F
GROTON         PTSUNNY   76  71  85 SW5       29.93R
NEW HAVEN      CLOUDY    78  69  73 VRB5      29.92F
CHESTER        FAIR      79  70  73 SW8       29.94F
MERIDEN        CLOUDY    77  70  79 W5        29.93S
WILLIMANTIC    PTSUNNY   79  69  71 SW5       29.93S
OXFORD         CLOUDY    73  68  83 VRB5      29.97F
$$

MEZ002-015-021-024-NHZ003-005-008-011-012-014-VTZ005-008-141700-
NORTHERN NEW ENGLAND

CITY           SKY/WX    TMP DP  RH WIND       PRES   REMARKS
PORTLAND ME    PTSUNNY   83  67  58 S9        29.88S
BANGOR ME      MOSUNNY   82  60  47 W8        29.86F
CONCORD NH     MOSUNNY   82  66  58 MISG      29.89F
MANCHESTER NH  PTSUNNY   83  64  52 W6        29.88S
NASHUA NH      PTSUNNY   86  64  47 VRB3      29.90S
PORTSMOUTH NH  PTSUNNY   83  65  54 VRB5      29.89S
JAFFREY NH     PTSUNNY   80  63  55 S8        29.95S
KEENE NH       MOSUNNY   81  61  50 S6        29.91F
BURLINGTON VT  MOSUNNY   81  63  54 S9        29.87S
MT. WASHINGTON PTSUNNY   55  48  76 W21         N/A
$$

NYZ052-076-141700-
EASTERN NEW YORK

CITY           SKY/WX    TMP DP  RH WIND       PRES   REMARKS
ALBANY         MOSUNNY   82  67  60 S7        29.89F
NEW YORK CITY  CLOUDY    79  70  74 E6        29.91S
$$

ANZALL-141700-
MARINE OBSERVATIONS

STATION/POSITION TIME  TEMP    WIND        PRES    VSBY  WAVE
                       AIR SEA DIR/SP/G                  HT/PER
                 (UTC) (F)     (DEG/KT/KT) (MB)    (MI)  (FT/S)
BOSTON BUOY      NOT AVBL
BUZZARDS BAY     NOT AVBL
NANTUCKET SOUND  NOT AVBL
MASS BAY-STELLWA NOT AVBL
ISLE OF SHOALS   NOT AVBL
S OF BLOCK IS    NOT AVBL
$$

......................KEY.........................
  SKY/WX - SKY CONDITION/PRESENT WEATHER
  TMP    - TEMPERATURE IN FAHRENHEIT
  DWPT   - DEWPOINT IN FAHRENHEIT
  RH     - RELATIVE HUMIDITY IN PERCENT
  WIND   - DIRECTION AND SPEED IN MPH
  PRES   - MEAN SEA LEVEL PRESSURE IN INCHES OF HG
  WCI    - WIND CHILL INDEX
  VSB    - VISIBILITY IN MILES
  HX     - HEAT INDEX
  TC     - TEMPERATURE IN CELSIUS
  VRB    - VARIABLE WIND DIRECTION
  N/A    - NOT AVAILABLE


USA.gov is the U.S. government's official web portal to all federal, state and local government web resources and services.